Theta_e
319 320 318 318 318 319 318 319 318 320 318 318 319 319 319 318 320 317 318 318 317 320 319 321 321 319 320 319 317 321 321 319 319 316 313 312 312 317 321 322 319 320 323 323 325 328 329 329 329 328 328 327 326 325 325 325 325 324 323 322 323 322 321 320 320 320 320 320 320 320 320 320 320 320 321 320 320 320 320 320 319 320 320 319 320
320 318 318 318 316 317 317 317 317 319 317 320 318 317 318 317 317 317 318 315 317 317 316 318 322 320 318 316 319 321 321 319 318 316 315 313 313 315 318 319 319 319 321 322 325 327 327 328 327 327 328 325 324 323 324 324 324 323 322 321 321 321 320 320 319 319 319 319 319 319 320 320 320 320 319 319 319 319 319 319 319 320 319 320 320
319 319 318 317 318 318 318 319 317 319 319 320 318 317 317 318 319 317 316 317 317 316 316 316 317 321 319 317 318 320 321 317 316 316 316 313 313 312 316 317 318 319 319 320 324 326 326 326 327 327 327 325 323 323 324 324 324 322 321 322 321 320 320 320 319 319 319 318 319 319 319 319 319 318 318 318 318 318 318 318 318 318 318 318 318
320 320 319 318 318 318 318 318 319 319 320 319 319 318 318 318 317 316 317 318 316 318 317 317 319 319 316 319 321 322 319 317 316 315 315 314 313 313 312 312 313 316 318 318 321 323 323 323 325 325 325 323 323 324 323 322 322 321 322 322 321 321 320 319 318 318 318 318 319 319 318 318 318 318 318 318 318 317 317 316 316 316 317 318 317
319 320 319 319 319 319 318 320 321 321 318 319 318 318 318 318 317 317 317 317 318 320 320 318 319 318 316 317 318 319 316 316 314 315 315 313 312 311 311 308 307 310 313 316 318 321 321 321 322 322 322 321 322 322 321 321 321 321 321 322 321 320 319 319 318 318 318 319 320 318 318 318 317 317 317 316 316 315 315 316 315 315 316 316 315
321 319 319 319 320 319 319 320 318 320 321 319 318 317 318 317 316 315 317 316 317 320 315 315 314 314 315 317 320 318 317 316 313 313 312 309 307 306 307 307 305 304 306 312 314 318 319 319 318 319 320 321 321 320 320 320 320 320 319 321 319 319 319 319 318 318 318 318 319 318 317 317 316 316 315 315 315 314 314 314 314 314 314 315 315
322 323 321 320 320 320 318 320 320 319 320 319 319 317 316 320 318 316 314 313 317 316 314 313 317 318 316 319 319 318 315 316 315 312 310 307 306 303 304 303 303 304 304 304 308 313 315 317 317 316 316 317 319 320 320 319 319 318 318 319 318 319 318 318 317 318 317 317 317 316 315 315 315 315 315 315 314 314 313 313 313 313 314 314 314
322 323 322 321 320 320 320 319 319 319 319 317 318 318 317 317 319 318 315 314 314 316 316 316 313 314 314 316 316 316 314 313 310 308 306 306 304 302 302 301 300 300 303 303 304 308 313 313 313 314 314 314 314 316 318 318 317 317 317 318 318 318 318 317 317 317 317 316 315 315 314 314 313 314 314 314 314 313 312 313 313 312 313 313 313
323 323 323 322 319 321 320 321 320 320 319 317 317 318 319 320 316 314 314 312 313 312 312 312 313 313 312 312 313 314 313 311 308 306 305 303 300 300 300 299 300 303 299 301 304 305 310 313 313 311 312 312 312 312 313 316 316 314 315 316 317 317 317 316 315 315 315 314 313 313 313 313 312 313 313 313 313 312 312 312 312 313 312 312 313
323 324 323 323 322 321 321 321 322 321 320 318 318 317 318 318 316 316 315 313 312 311 312 313 314 314 311 311 313 312 311 309 306 304 302 299 298 298 298 298 299 299 300 300 300 301 302 306 309 310 311 312 311 311 310 311 312 311 312 314 316 316 316 316 315 314 313 313 313 313 313 312 312 312 312 312 312 312 311 311 311 312 311 312 311
324 324 324 323 322 321 320 321 322 321 320 318 315 318 317 315 316 315 314 317 316 313 313 312 314 312 314 313 314 312 311 308 306 304 301 299 299 299 300 298 299 299 299 299 298 297 297 296 296 297 304 311 310 311 309 307 307 309 310 313 314 315 315 315 314 313 313 312 312 312 312 311 312 312 311 311 311 311 311 311 312 311 312 311 311
325 325 325 324 322 321 321 320 321 320 319 318 315 316 318 317 315 316 316 314 314 315 312 310 308 311 310 311 311 311 309 308 306 302 300 298 298 297 297 296 298 297 298 297 298 296 297 296 296 295 298 307 309 308 307 305 304 304 307 311 313 314 315 315 313 312 312 312 311 311 311 311 311 311 311 311 311 311 311 311 312 311 311 310 310
325 326 325 323 323 321 322 320 321 321 320 319 319 317 318 319 316 314 315 313 314 313 312 309 309 309 311 309 309 309 307 307 305 301 299 298 297 296 294 295 294 295 296 297 296 296 295 295 295 295 295 295 301 305 305 303 301 302 305 307 310 313 314 314 314 312 311 311 311 311 310 310 311 310 310 311 310 311 310 311 312 312 311 311 311
325 326 326 325 323 322 321 322 321 321 321 320 318 315 318 317 317 314 312 313 314 313 313 310 307 307 306 305 305 307 305 306 303 299 298 298 296 294 293 293 294 294 295 296 295 295 295 294 294 295 295 296 297 297 297 296 297 300 304 304 307 311 313 313 313 311 310 311 310 310 310 309 310 310 309 310 310 310 310 310 311 310 311 310 310
326 326 326 326 325 323 322 322 322 321 320 319 317 318 319 318 317 317 313 312 312 312 313 309 305 306 304 304 301 303 305 304 304 300 299 297 294 293 293 293 294 294 294 295 294 294 295 294 294 294 295 297 296 295 295 296 295 297 300 302 304 309 311 312 312 310 309 308 309 309 309 308 309 308 309 309 309 309 309 309 310 310 310 310 311
326 326 327 326 325 323 322 322 322 321 321 320 318 319 319 318 317 315 315 314 313 314 310 310 307 307 304 302 302 299 297 302 299 300 298 295 293 293 293 292 292 293 292 295 294 293 293 293 294 294 295 295 295 294 293 292 295 296 297 299 300 305 307 310 310 310 308 308 310 309 308 308 308 307 309 309 309 309 309 309 309 310 309 310 311
327 327 326 326 326 325 323 322 322 321 321 321 319 320 320 320 318 316 316 317 315 313 313 310 309 307 303 298 297 297 297 299 297 297 297 293 294 292 291 291 291 291 291 293 293 293 293 292 292 293 294 294 294 292 291 290 289 292 292 296 299 302 305 306 308 308 308 308 309 308 307 307 307 307 308 308 308 308 308 308 309 309 309 309 309
327 327 326 325 326 325 324 322 321 321 321 321 320 319 319 319 318 318 317 316 316 313 313 310 307 306 307 302 297 296 297 299 298 292 297 295 294 293 291 291 290 290 290 292 293 292 293 292 291 293 293 294 292 290 289 289 290 289 290 295 299 301 302 303 305 306 307 307 306 307 307 306 306 306 307 307 307 307 307 308 308 308 308 309 308
327 327 327 326 326 325 324 324 322 321 320 321 320 319 320 320 319 318 318 316 314 312 311 312 308 306 304 304 303 301 297 298 295 292 292 294 294 293 293 293 291 290 291 290 291 291 293 291 291 292 293 293 291 289 288 289 291 293 296 297 299 299 300 300 302 303 304 306 305 306 307 306 306 306 306 306 306 306 307 307 307 307 307 307 307
328 328 327 326 325 325 325 324 323 322 320 321 321 320 320 320 320 320 319 318 315 314 311 310 310 307 303 302 300 298 296 294 295 296 293 292 292 294 293 292 292 291 290 290 291 291 291 291 291 292 292 291 289 287 287 287 287 287 292 297 298 299 299 300 299 299 300 302 303 304 305 304 305 306 307 306 306 306 306 306 306 307 307 306 306
328 328 327 327 323 325 325 324 323 321 319 321 320 320 320 319 318 319 318 317 316 314 312 309 309 306 302 299 297 297 295 293 291 290 288 290 290 291 291 292 291 292 290 290 289 290 291 291 290 291 292 291 289 287 287 287 287 287 294 296 297 298 299 300 299 299 298 298 299 300 302 303 304 304 306 306 305 305 305 305 305 306 307 306 305
328 328 327 327 326 325 325 324 323 322 319 321 320 320 320 320 319 319 319 317 315 313 311 310 310 307 307 303 300 294 294 293 292 290 290 290 290 291 290 289 288 290 291 291 289 290 290 291 291 291 290 289 287 286 286 287 288 289 292 294 295 297 298 298 299 298 298 297 297 297 298 299 302 304 305 305 305 305 305 305 305 305 305 305 306
327 327 327 327 327 325 325 325 323 321 319 321 320 320 319 319 319 318 317 317 315 313 310 309 308 305 304 303 301 298 293 289 288 291 289 287 288 290 289 289 287 287 290 290 289 289 290 290 290 290 289 288 287 287 287 287 291 292 292 293 294 295 296 296 298 298 297 296 296 296 297 297 298 301 302 303 304 304 305 305 304 305 304 304 305
326 326 326 327 326 326 325 324 322 321 321 321 320 320 319 318 317 317 317 315 315 313 311 307 306 304 303 302 301 298 294 292 291 292 291 289 290 288 289 287 287 287 290 292 290 289 290 290 289 290 289 287 288 287 287 287 289 293 289 292 293 294 294 295 298 297 296 295 295 295 296 297 297 298 299 300 301 302 303 304 304 305 305 304 302
325 326 326 325 325 324 324 324 323 321 321 321 320 319 318 317 317 316 315 314 313 312 311 308 306 304 303 301 300 297 295 293 293 292 291 291 289 287 288 286 283 286 287 289 290 289 289 289 289 289 288 288 288 287 287 287 287 292 291 288 292 292 293 294 296 296 296 295 295 295 295 296 297 297 297 298 298 299 301 303 304 305 304 304 305
325 325 327 325 323 324 323 324 323 322 321 321 320 319 318 317 316 315 314 314 312 311 310 308 304 302 300 299 297 295 292 292 293 291 290 290 287 287 285 284 285 284 286 287 287 290 288 288 288 287 287 287 287 286 286 286 287 292 291 287 288 291 292 293 294 295 295 294 294 295 295 295 295 296 296 297 297 298 298 300 302 303 304 302 303
325 326 323 324 323 323 322 323 322 321 320 321 320 319 318 317 316 315 312 310 310 308 306 304 302 298 296 297 294 292 291 291 290 291 291 290 289 287 285 284 282 283 284 283 285 286 286 286 287 287 287 286 286 286 285 286 290 291 289 285 284 289 291 291 292 294 294 294 294 294 294 294 295 295 295 295 297 296 298 299 299 300 302 303 303
325 323 323 323 322 322 320 321 321 320 319 321 319 318 317 316 314 312 311 308 308 306 305 303 301 297 295 293 293 291 291 290 290 290 289 289 289 288 286 284 283 281 283 283 281 284 286 285 287 286 286 286 286 285 288 287 287 289 288 284 283 284 290 290 292 292 292 293 293 294 294 294 294 295 294 294 294 295 296 298 297 298 298 299 301
324 321 322 321 322 321 320 319 319 319 319 319 318 317 315 314 311 310 310 306 307 306 304 304 300 296 294 293 293 291 289 289 290 290 289 289 289 288 287 285 284 282 280 280 280 281 286 285 284 287 285 285 285 287 286 284 288 286 283 283 283 282 288 289 290 291 291 292 293 293 293 293 293 293 293 293 293 294 295 295 295 296 296 297 298
323 321 320 320 320 315 320 319 318 317 318 317 316 315 313 312 311 311 310 306 305 302 301 300 296 294 292 291 291 290 289 289 288 289 288 288 288 288 287 286 284 283 281 280 280 282 284 285 284 284 285 285 286 287 285 283 290 285 282 282 282 283 287 287 289 289 290 291 292 292 292 292 292 292 292 292 292 294 295 295 295 295 296 297 298
318 318 318 317 317 316 317 316 314 314 314 314 314 313 312 310 309 308 304 304 303 300 297 297 293 292 291 289 289 289 288 288 288 288 287 288 287 286 286 287 286 284 283 280 280 281 284 283 285 284 284 284 285 283 284 284 287 285 282 281 281 286 286 285 286 288 289 291 291 291 291 292 292 292 292 291 292 293 293 294 294 294 295 295 296
319 319 318 316 314 314 313 313 312 311 311 312 313 312 311 310 307 304 302 302 301 299 295 294 293 291 290 288 288 288 287 287 287 287 286 287 287 286 286 287 285 285 285 282 280 282 284 283 283 284 284 283 283 283 282 283 284 286 281 281 282 284 282 281 284 286 287 289 290 289 290 290 290 290 291 291 291 292 292 293 293 293 294 295 295
318 317 317 317 316 314 312 310 311 311 312 311 311 311 309 307 305 304 300 300 299 296 294 291 289 289 288 288 287 287 286 286 286 286 286 286 285 286 286 285 285 284 285 283 282 281 282 283 283 284 285 283 282 282 281 281 281 281 282 280 280 279 280 280 280 284 286 288 288 288 289 289 289 289 289 289 290 290 291 292 291 291 293 293 294
315 316 316 317 316 315 313 312 311 311 311 311 309 308 306 303 301 300 298 298 296 294 292 291 288 288 287 286 286 286 285 286 285 285 286 285 285 285 285 285 285 284 284 284 282 281 280 281 282 282 283 283 281 281 281 280 280 280 279 279 280 279 279 280 279 280 285 287 287 287 287 288 288 288 288 288 289 289 290 291 290 291 292 292 292
313 315 316 315 314 314 313 312 312 310 310 308 307 307 305 303 300 299 297 297 295 292 291 290 288 286 286 286 286 285 285 285 285 285 285 285 284 284 284 284 284 284 283 283 282 282 281 281 281 281 282 282 282 282 281 281 280 280 279 279 279 280 280 279 279 280 284 286 286 286 286 286 287 287 287 287 287 288 289 289 289 290 291 292 292
314 313 314 315 313 313 312 310 310 309 308 307 305 304 304 302 300 299 296 295 294 292 291 289 287 286 286 285 285 285 285 284 284 284 284 284 284 284 284 283 284 284 284 283 283 281 281 281 281 281 282 281 281 280 281 280 279 278 278 279 278 278 278 279 278 278 282 285 284 284 285 285 285 286 286 286 287 287 288 288 288 289 289 290 291
312 311 310 311 312 311 311 310 309 308 307 306 304 303 302 300 300 298 295 294 293 291 291 289 288 286 285 285 285 285 284 284 284 283 284 284 284 284 284 284 284 284 284 284 282 282 281 281 281 281 282 281 281 279 279 279 279 278 278 278 278 277 278 278 279 280 282 283 282 282 283 283 284 284 285 285 286 286 286 287 287 288 288 289 289
309 309 311 309 309 310 309 309 309 308 307 305 304 302 300 297 297 296 294 293 292 291 289 288 287 286 285 285 285 285 284 284 284 284 284 284 284 284 284 283 283 283 283 282 282 282 281 281 281 280 281 281 278 278 278 278 278 277 277 277 277 277 277 277 277 279 279 278 278 278 280 281 282 283 284 284 285 285 285 286 286 287 287 288 289
308 307 306 307 306 309 309 308 308 307 305 303 302 300 297 295 295 293 292 291 290 289 288 287 287 286 285 285 285 285 284 284 284 284 284 284 284 284 284 284 283 283 282 282 281 281 281 281 280 281 280 279 278 277 278 278 277 277 275 274 273 277 277 275 275 276 277 277 278 280 280 280 281 280 282 282 283 284 284 284 285 286 287 288 288
306 307 308 308 307 307 308 307 307 305 303 301 299 297 295 293 292 292 291 290 289 288 287 287 286 285 284 285 285 285 285 284 285 284 285 284 285 284 284 283 283 283 282 281 281 281 280 280 280 280 278 278 277 277 277 276 275 274 275 273 272 274 275 275 273 272 273 274 274 275 277 278 277 279 280 280 281 282 282 281 282 284 286 287 288
302 302 303 303 301 301 299 301 300 299 300 300 298 295 293 292 292 290 290 289 288 287 286 285 284 284 284 284 285 285 285 285 286 286 286 286 285 284 283 283 283 282 282 281 281 281 280 280 279 279 278 277 277 276 275 274 272 273 273 273 273 275 277 276 274 272 273 274 274 272 273 273 273 274 274 275 276 278 278 280 280 284 286 287 287
295 295 296 296 295 297 298 297 296 296 297 297 292 293 293 293 292 291 289 288 287 287 286 285 284 283 283 284 285 285 285 285 285 286 287 287 287 286 284 283 283 282 281 281 280 280 280 279 279 278 276 275 276 276 275 276 275 273 272 272 272 275 276 274 272 271 272 274 273 272 272 272 272 273 273 273 275 276 275 276 279 284 285 286 286
292 291 291 293 292 293 294 294 294 294 296 296 292 294 294 293 292 290 288 287 287 286 285 285 284 283 283 283 284 284 285 285 285 287 288 288 287 287 286 285 285 283 282 280 280 280 279 278 279 277 276 275 277 277 277 275 273 273 273 274 275 275 273 272 269 272 273 274 272 270 270 271 270 271 272 272 273 274 275 276 283 285 285 285 285
289 289 291 292 292 291 292 292 293 293 295 293 294 294 294 293 291 289 288 287 286 286 285 284 284 283 283 283 283 284 284 284 285 286 286 287 287 287 286 286 286 286 285 282 280 279 279 277 276 277 277 276 276 277 276 274 272 273 273 274 276 275 273 272 272 271 273 274 269 267 269 269 268 271 270 271 273 273 275 279 283 285 285 285 284
288 290 291 291 291 290 291 292 292 292 292 293 293 293 293 293 292 290 288 287 286 285 285 284 283 283 282 282 282 283 283 284 284 284 284 285 286 287 287 286 286 286 286 285 284 282 281 278 276 276 277 277 277 277 277 276 274 270 273 275 276 275 274 273 273 273 274 272 267 266 265 268 267 270 269 271 272 272 274 277 283 284 285 284 284
289 289 289 290 290 290 291 292 292 290 291 290 293 293 292 292 292 290 287 286 285 285 284 284 283 282 282 282 282 282 282 282 283 283 283 283 283 283 283 283 282 284 285 286 285 283 282 279 277 276 278 278 278 278 277 278 273 271 273 275 276 275 274 273 274 274 272 271 268 268 264 264 266 267 268 270 271 272 271 277 282 283 284 283 282
289 290 289 289 290 289 289 289 290 289 290 291 292 293 292 292 292 289 286 286 285 284 283 283 283 282 282 282 282 282 281 282 282 282 282 282 282 282 281 281 281 281 282 282 283 282 281 280 279 278 279 279 279 278 278 278 277 277 278 277 276 276 275 274 270 269 268 269 268 269 264 265 265 267 266 269 270 270 268 274 280 282 283 282 282
288 288 288 289 288 288 288 288 289 289 287 291 292 292 292 292 291 287 286 285 284 283 282 282 282 282 282 281 281 281 281 281 282 284 283 282 281 280 280 280 280 280 281 282 283 283 281 280 280 280 279 279 281 279 279 279 279 279 278 276 275 272 270 269 267 265 266 267 270 268 264 262 264 268 269 269 269 268 269 268 276 280 281 281 281
287 287 288 287 288 288 287 288 289 289 287 289 291 291 292 292 290 286 285 285 284 283 282 282 282 281 281 281 281 280 280 280 283 285 285 283 281 280 280 279 280 279 279 281 283 284 284 284 283 283 283 283 284 284 284 284 282 278 275 273 272 270 268 267 267 266 264 267 268 270 265 263 263 268 268 268 268 269 267 267 268 277 279 279 279
287 287 287 287 287 287 287 287 288 287 286 287 290 291 291 291 289 286 285 284 283 282 281 281 280 280 280 281 281 280 280 280 284 285 285 283 280 280 280 279 278 278 278 279 280 282 284 284 284 283 284 284 284 284 284 283 283 281 274 272 268 269 268 269 267 268 269 266 265 268 263 263 265 267 268 268 268 264 264 264 272 272 275 275 277
286 286 286 286 286 286 286 286 286 287 286 286 289 290 291 291 288 285 285 284 282 282 281 280 279 279 279 281 281 281 280 281 285 286 286 283 281 281 280 279 278 278 278 279 278 278 280 280 280 281 281 281 280 277 276 282 282 281 275 272 272 271 269 269 269 268 266 264 267 268 265 265 267 268 269 267 265 267 264 265 270 270 271 270 269
Wind_Speed
5 5 5 6 6 5 6 6 6 6 5 6 5 3 4 2 0 1 3 3 3 3 3 2 4 3 3 2 2 2 2 2 5 5 4 4 3 6 9 9 10 11 11 12 12 12 12 12 14 14 16 16 16 16 16 16 17 17 17 17 17 16 17 17 17 18 18 18 18 18 19 19 20 20 20 21 21 21 22 22 23 24 25 24 25
6 5 5 5 3 4 6 5 5 6 4 5 5 3 2 1 2 3 4 2 2 2 1 1 2 3 2 3 0 1 3 3 5 5 4 3 4 4 8 9 9 11 12 12 12 12 13 13 14 14 16 15 15 15 16 16 16 17 16 17 17 17 18 17 18 18 18 18 18 19 19 19 20 20 21 21 21 22 22 24 24 24 25 24 25
6 6 5 4 4 4 4 4 4 5 5 5 2 1 2 4 3 3 1 1 2 1 0 0 2 3 2 3 2 2 4 3 4 5 4 4 4 3 5 9 9 10 12 12 13 13 13 13 13 14 15 15 15 15 15 16 16 16 16 17 17 17 17 18 17 18 18 18 18 19 19 20 20 20 21 21 22 23 24 23 24 24 25 26 26
6 5 5 5 5 5 4 4 5 5 4 3 5 4 3 3 1 1 1 1 3 2 1 1 2 3 1 2 0 5 4 3 4 3 5 5 4 4 4 5 9 9 11 12 13 13 13 14 15 15 15 15 15 15 16 16 16 16 16 17 17 17 17 17 17 17 18 18 19 19 19 19 20 20 20 20 21 22 23 23 25 26 25 25 26
6 6 6 6 5 5 4 5 5 5 3 4 3 1 0 1 1 1 2 2 1 2 1 2 1 1 0 1 3 4 3 4 4 5 7 5 5 4 4 4 5 8 11 9 11 13 13 14 15 14 15 15 15 16 16 16 16 16 16 17 17 17 17 17 17 17 17 18 19 19 19 19 19 20 20 21 21 22 23 23 25 26 26 26 28
6 5 6 6 5 5 5 6 4 4 5 3 3 2 2 1 3 1 3 2 3 4 2 1 1 1 2 3 6 5 4 4 4 5 6 6 5 4 4 3 4 4 5 9 10 11 13 14 15 14 14 14 15 15 16 16 17 17 16 17 17 17 17 17 17 17 18 18 18 19 19 19 19 19 21 21 22 24 24 24 25 26 27 27 28
5 7 6 6 6 6 5 7 5 4 5 4 4 3 3 5 2 3 1 1 1 1 1 1 0 1 3 4 5 4 4 4 5 5 5 4 5 4 5 4 3 3 4 4 7 10 12 13 13 13 14 15 14 14 15 16 17 17 17 17 17 17 17 17 17 17 18 18 18 18 18 19 19 20 21 21 22 23 25 26 27 28 28 28 29
5 5 7 6 6 7 7 5 5 5 5 4 3 4 4 2 5 4 2 1 2 1 2 3 2 1 2 4 5 5 4 5 6 5 4 5 5 4 5 4 3 3 3 4 4 6 9 10 11 11 12 14 15 15 15 16 17 19 18 17 17 16 16 16 17 17 18 18 18 18 19 19 20 21 22 22 23 25 26 26 28 29 29 30 30
5 5 7 6 6 6 6 5 5 5 5 3 4 5 4 4 3 3 3 2 3 3 1 2 2 1 1 4 4 5 4 5 6 5 5 6 4 4 4 4 4 5 4 5 4 4 6 7 9 10 10 11 14 15 15 15 17 19 18 17 17 16 16 16 17 17 17 17 18 18 19 20 21 22 22 23 24 25 26 28 28 29 30 30 31
5 6 6 7 6 6 6 5 6 6 6 4 6 3 4 5 4 1 4 3 3 3 2 1 0 1 1 3 5 4 4 6 5 5 7 5 4 4 4 4 4 4 4 4 4 3 2 4 6 6 7 8 12 14 16 16 17 19 19 17 16 16 16 16 17 17 17 18 19 19 20 21 22 23 23 24 25 26 27 28 29 29 30 30 32
6 6 7 7 6 6 5 5 6 6 6 5 3 4 4 4 5 2 1 4 6 4 3 2 0 1 1 1 4 4 5 4 5 6 5 5 5 3 3 4 4 4 4 5 4 4 3 3 4 4 5 9 11 14 15 16 17 19 18 17 16 16 16 16 17 17 18 18 19 20 21 21 22 23 24 25 26 27 27 28 29 30 30 31 32
7 7 7 7 6 6 6 5 6 6 6 5 5 6 6 5 4 4 4 2 1 4 3 2 2 3 3 2 2 5 4 5 4 5 5 4 4 3 4 3 4 4 4 4 5 4 4 4 4 3 3 7 11 13 15 15 16 18 18 17 17 16 16 17 17 18 18 19 20 20 21 22 23 24 24 25 26 27 27 28 29 30 30 32 32
9 8 8 7 7 6 6 5 6 7 7 7 6 7 6 6 6 4 5 3 1 1 2 4 2 3 5 2 2 2 3 4 5 5 4 4 5 4 2 5 3 4 4 5 4 4 4 4 3 3 4 4 6 10 13 14 16 18 17 17 17 17 17 17 18 18 19 19 20 21 22 22 23 23 24 25 26 27 28 28 28 29 30 30 31
10 9 9 8 8 7 7 7 7 7 7 7 6 6 6 5 5 3 1 5 4 4 4 3 1 3 4 1 2 2 2 3 4 3 4 4 4 4 4 4 4 4 3 4 4 4 3 3 3 3 4 5 5 6 6 7 10 17 16 18 18 18 18 18 18 18 19 19 20 21 22 22 23 24 25 25 26 27 28 28 29 30 30 30 30
11 10 9 9 9 8 8 7 7 7 7 7 6 6 7 7 7 7 4 1 2 3 5 3 3 3 3 5 2 3 1 2 1 1 4 4 4 4 3 4 3 3 4 4 4 4 3 3 3 4 5 5 5 5 6 6 8 12 15 17 18 18 18 18 18 18 19 20 21 21 22 22 23 24 24 25 26 27 28 29 29 30 30 30 30
11 11 10 10 10 9 8 7 8 7 8 7 6 8 7 7 6 7 7 4 3 4 3 4 4 6 4 3 5 5 3 5 3 1 0 4 4 3 3 3 3 2 4 5 4 4 3 3 4 4 5 5 5 5 6 5 7 8 9 11 17 18 18 17 17 18 19 20 21 21 21 22 23 24 25 26 27 28 28 29 30 30 30 29 30
12 12 11 11 11 10 9 8 8 8 8 8 8 8 8 8 9 7 7 7 6 4 4 3 4 4 6 4 2 1 5 4 5 1 0 2 0 2 3 4 4 3 4 3 3 3 3 4 4 4 4 5 5 5 6 5 5 4 6 10 15 17 17 17 18 19 20 20 21 20 21 22 23 24 25 26 27 28 29 29 29 29 29 30 31
12 12 12 11 11 11 10 9 9 8 8 8 8 7 8 8 8 8 8 6 8 6 6 3 3 4 4 4 4 4 5 4 7 4 1 1 1 1 2 4 4 4 3 4 4 3 2 4 4 4 4 5 5 6 5 4 4 4 5 8 16 16 16 16 17 18 19 20 20 21 22 23 24 25 26 27 27 28 28 28 28 29 29 30 30
11 11 12 12 11 10 10 10 9 8 8 8 9 9 8 9 8 8 8 7 6 7 8 7 1 2 1 1 2 2 3 8 7 4 4 1 1 2 1 2 4 4 4 4 4 4 1 3 5 5 4 4 6 5 4 4 5 5 12 16 15 15 15 15 16 18 19 20 21 22 23 24 25 25 26 27 27 27 27 28 28 28 29 30 31
11 11 11 11 10 9 9 9 8 8 8 9 9 8 7 7 9 9 8 8 8 8 8 7 8 5 3 3 2 2 1 1 2 8 7 8 5 3 3 2 0 3 4 4 4 4 3 2 5 5 5 4 5 5 4 4 4 4 6 16 15 15 15 15 16 17 18 20 22 23 24 24 25 25 26 26 26 26 27 27 27 28 28 28 29
10 10 10 10 10 10 9 9 8 8 8 8 8 8 9 8 8 8 8 7 7 7 7 8 8 7 4 2 2 2 0 0 1 3 4 5 2 6 4 1 2 1 3 2 4 4 4 4 5 6 5 5 5 4 5 4 3 3 7 15 14 15 15 16 17 17 18 19 20 22 22 23 24 25 25 25 25 26 26 27 27 27 28 29 29
10 10 10 10 10 10 10 11 10 9 9 8 8 8 8 8 9 9 9 9 7 8 8 7 8 7 8 7 7 2 1 1 1 2 3 3 7 9 6 7 5 4 0 1 3 3 2 3 5 5 5 5 4 4 4 4 3 3 7 15 14 15 16 17 18 18 18 18 19 20 21 22 23 24 24 25 25 25 25 26 26 27 29 29 29
10 11 11 11 12 12 11 11 9 9 9 9 9 8 8 9 8 9 9 9 8 7 7 5 7 7 7 8 9 9 8 7 8 6 5 3 3 3 3 4 6 3 4 4 3 3 2 4 6 5 5 5 3 3 4 3 3 6 10 15 15 16 17 18 18 17 17 17 18 19 20 21 22 23 23 24 24 24 24 25 26 27 27 28 29
10 10 11 12 11 12 12 10 10 9 10 8 8 8 7 7 7 8 8 8 7 8 7 7 7 7 7 7 7 7 4 3 5 6 7 6 7 7 6 2 1 1 2 1 2 3 2 4 5 6 5 5 3 3 4 4 5 10 7 12 15 16 17 17 17 16 16 16 17 18 19 21 21 22 22 22 23 23 24 25 26 28 28 27 27
11 12 12 13 12 11 11 12 10 10 10 8 8 8 8 7 8 8 7 8 8 8 7 7 8 8 8 7 7 7 7 4 5 6 4 6 7 7 1 1 3 2 2 1 3 2 2 4 5 5 5 4 3 4 5 5 4 8 9 7 13 14 15 16 16 15 15 15 16 17 19 20 21 21 21 21 22 22 23 24 25 27 30 30 30
12 13 12 12 10 11 12 12 11 10 10 10 9 9 9 8 8 8 8 7 7 8 8 7 7 6 5 7 5 7 4 3 6 6 6 7 6 8 5 2 1 3 2 1 1 2 1 5 3 4 5 5 4 4 4 4 5 7 9 6 7 11 14 15 15 14 14 14 15 17 18 19 20 20 20 21 21 22 23 24 25 26 27 29 31
11 11 8 11 11 10 10 11 10 10 9 9 9 9 9 8 8 8 7 7 7 7 6 7 7 6 6 7 7 6 5 5 6 6 6 6 7 7 8 7 1 0 1 1 1 2 3 2 2 4 5 3 4 4 4 4 4 6 7 5 4 7 12 15 14 14 15 15 15 17 18 18 19 19 19 20 21 21 22 23 24 25 26 29 29
9 8 9 9 9 10 9 10 10 9 9 10 10 9 8 8 7 7 8 5 7 7 7 7 7 7 6 6 7 7 5 5 5 6 6 6 6 6 7 7 9 3 1 2 0 1 3 3 1 3 3 3 3 2 5 5 3 5 6 4 4 4 11 15 15 15 15 15 15 17 17 17 18 18 19 19 20 20 21 22 23 23 25 27 30
9 8 9 9 9 10 10 9 9 10 10 10 10 9 8 8 8 7 8 6 7 8 6 7 7 7 6 8 8 7 6 4 4 5 6 6 6 6 7 8 7 7 5 5 4 3 1 1 3 0 1 1 2 3 5 3 4 6 4 4 4 4 10 15 15 15 15 15 15 16 17 17 17 17 18 19 19 20 21 21 22 23 24 27 28
9 8 9 10 9 10 10 9 8 8 10 9 9 9 9 8 8 9 8 8 8 5 6 7 7 6 6 5 6 7 5 5 6 5 6 7 6 6 5 5 5 7 5 6 5 2 2 2 2 2 0 1 2 4 4 3 6 6 4 4 4 4 12 14 15 15 14 15 16 16 17 17 16 17 18 18 19 20 21 21 22 23 24 26 27
8 9 9 8 9 8 8 8 8 8 8 9 9 9 9 8 8 8 6 7 7 7 6 7 6 7 7 7 5 7 6 6 6 6 5 7 6 6 5 4 3 5 7 4 4 2 2 2 1 1 2 1 3 3 3 4 4 4 3 4 3 7 9 9 14 14 14 15 15 16 17 17 16 17 18 18 18 19 20 20 21 23 25 27 26
9 10 9 10 9 9 7 8 8 8 9 9 10 10 10 10 10 8 8 9 9 9 7 6 7 7 8 8 7 8 6 5 6 6 6 5 6 6 5 5 3 3 5 4 4 4 1 2 3 1 1 2 2 3 2 3 3 4 4 3 4 5 6 5 9 14 13 14 14 16 17 16 16 17 17 17 18 18 19 20 21 23 24 24 25
9 9 10 10 10 10 9 8 9 9 10 10 9 9 10 10 9 10 10 9 9 6 7 7 5 7 8 8 7 6 6 8 6 6 6 6 5 5 5 5 5 3 5 4 5 3 1 2 2 1 0 3 2 1 3 2 3 3 4 3 4 4 4 5 5 9 13 13 13 16 16 16 17 17 17 17 17 17 18 19 20 21 23 24 24
9 10 10 10 9 10 10 10 9 9 10 11 11 10 11 10 9 7 8 10 9 9 8 9 7 7 7 8 7 7 6 7 7 7 7 7 6 6 5 6 5 5 3 4 3 4 4 0 1 2 1 2 1 1 3 3 2 2 4 3 3 3 3 5 5 6 12 12 14 16 15 16 16 16 16 16 17 17 18 18 19 21 22 23 23
7 9 10 9 10 10 9 10 10 10 11 10 10 11 11 12 12 10 10 11 11 11 10 10 9 7 8 8 8 7 5 7 6 6 6 6 6 7 6 4 5 4 3 3 4 4 5 3 1 0 1 0 1 1 2 1 1 3 3 3 3 3 2 4 5 5 10 12 15 16 16 16 16 16 16 16 16 16 17 18 19 20 22 23 23
8 7 8 9 9 10 10 10 10 10 11 10 10 11 13 13 12 12 11 11 10 11 12 11 10 9 9 8 8 8 7 8 7 6 5 6 6 6 6 4 5 5 4 3 2 3 3 5 2 2 1 1 0 2 1 1 3 3 3 3 3 3 2 3 4 4 7 11 14 15 15 16 17 17 17 17 16 16 17 18 18 20 21 22 23
7 7 7 7 10 10 10 11 11 11 11 11 11 11 11 11 13 12 12 11 11 11 11 12 11 11 10 10 10 8 8 9 7 7 7 7 6 6 6 5 5 5 4 4 4 2 4 5 2 2 1 1 1 2 1 3 2 2 3 3 2 3 3 2 3 3 6 9 12 13 13 14 16 17 17 17 17 17 17 18 18 19 21 22 22
7 7 9 8 9 9 9 10 11 12 11 11 12 13 10 9 10 10 11 11 10 10 10 10 11 11 11 10 10 10 10 11 10 8 8 8 7 7 7 6 5 5 5 4 4 3 3 3 4 2 1 2 1 0 1 3 1 1 1 2 2 1 3 5 3 3 1 2 5 5 7 9 13 16 16 16 16 17 17 17 17 18 20 20 21
8 8 6 8 8 9 10 11 12 12 11 11 10 9 8 8 9 10 9 8 8 8 8 10 11 11 10 9 10 10 11 10 11 11 10 8 8 8 8 7 6 6 6 5 4 4 4 4 3 3 3 2 2 2 1 2 2 3 1 2 2 2 2 2 5 3 1 3 5 10 9 9 12 10 14 15 16 17 17 18 18 19 20 21 21
7 8 9 11 10 10 11 11 11 11 11 11 10 9 9 9 10 10 10 10 8 8 8 8 9 10 10 10 10 11 10 10 11 10 11 10 8 7 6 7 7 7 6 6 5 5 5 5 5 4 3 4 1 0 1 2 2 1 1 2 3 5 5 3 2 2 3 3 6 6 6 7 7 10 13 13 15 18 18 16 17 18 21 21 21
4 5 5 5 5 6 5 6 5 6 8 9 9 9 10 9 8 8 8 9 10 10 9 7 5 6 7 8 8 8 9 10 12 11 11 10 10 9 7 8 8 7 6 6 6 5 5 5 5 3 4 4 4 3 1 3 2 2 1 1 1 1 2 5 5 1 2 5 5 4 4 4 5 4 5 7 8 12 12 15 13 16 19 20 20
2 1 2 2 4 5 6 5 5 5 5 5 9 14 13 12 12 10 9 10 10 9 9 9 7 6 6 7 7 11 11 11 12 12 12 11 9 8 11 10 9 8 7 7 6 6 6 6 7 6 5 6 5 4 3 3 3 2 2 1 1 2 1 4 3 1 1 5 6 7 5 3 4 5 4 6 6 7 6 7 8 12 16 19 20
2 2 3 3 3 3 4 4 5 5 6 6 11 13 13 12 10 10 11 10 9 9 10 11 11 10 7 6 5 8 9 10 10 13 12 11 10 8 8 9 8 11 10 8 7 7 8 7 5 5 6 6 5 4 4 4 2 2 2 1 1 1 1 3 3 4 1 6 5 5 7 4 3 6 6 4 5 6 7 7 14 16 18 19 19
2 3 3 4 4 4 4 4 5 6 6 8 12 14 15 15 12 10 8 9 10 10 10 10 9 9 10 8 6 6 7 8 8 9 10 11 10 10 10 10 9 7 8 9 8 7 7 7 7 7 5 6 4 5 3 3 4 2 2 1 3 1 1 1 2 2 2 4 3 3 7 3 1 5 6 4 5 4 7 11 15 16 18 18 18
3 3 4 4 4 4 5 6 6 5 5 7 10 12 12 13 14 11 9 9 10 10 11 11 11 11 10 9 8 6 5 10 8 7 8 8 9 10 10 10 9 11 11 9 7 7 7 7 7 7 8 5 6 6 5 5 3 3 2 2 3 3 2 3 3 3 2 2 3 2 3 5 2 5 7 5 5 5 7 10 14 15 17 18 18
4 3 3 4 4 5 6 7 6 5 5 7 11 12 12 12 13 10 6 8 8 9 10 10 9 10 11 11 10 9 7 8 7 8 8 8 8 8 7 6 6 7 10 11 10 8 7 7 7 7 5 6 6 5 6 5 4 3 4 4 4 3 3 3 3 2 2 2 2 0 2 4 2 3 5 7 4 6 4 9 14 14 16 17 17
5 6 6 5 6 5 5 4 4 5 5 8 11 13 12 12 11 7 5 6 6 7 7 7 9 10 10 9 10 11 10 9 8 10 10 9 9 7 7 6 6 6 6 6 6 6 5 4 5 4 4 5 6 7 6 5 5 4 4 4 4 3 2 0 1 1 2 1 1 1 1 3 3 4 3 6 6 6 3 6 13 14 15 16 17
2 2 3 4 5 5 4 4 5 5 4 10 12 14 15 15 15 7 6 7 7 7 7 7 7 7 8 9 9 9 10 10 11 15 11 9 9 9 8 7 6 5 6 4 5 5 4 4 5 6 5 6 8 7 6 5 4 4 3 4 2 2 1 1 2 1 0 3 2 2 0 2 2 4 5 5 5 4 5 3 9 14 14 15 16
4 4 4 3 3 3 4 5 6 6 5 9 13 15 16 17 12 7 7 7 7 8 9 7 7 7 7 7 7 8 9 9 13 17 16 13 9 9 9 8 6 5 6 4 9 11 11 11 10 11 11 12 12 11 10 10 7 6 5 4 5 4 1 1 2 0 1 1 1 2 1 2 2 2 7 4 4 4 4 4 5 8 12 13 15
3 2 2 1 1 2 3 3 4 4 3 6 12 13 15 17 13 9 8 7 7 6 5 4 4 4 4 7 6 6 9 9 16 18 18 13 9 9 9 9 8 8 7 5 5 7 12 12 12 13 14 13 12 11 11 9 9 8 7 7 4 6 4 3 3 1 3 1 2 1 1 2 1 2 4 6 4 1 1 3 5 6 7 8 12
2 2 2 2 2 2 2 3 4 4 3 4 9 10 13 14 11 6 6 6 6 5 4 4 3 4 4 6 8 7 7 9 18 18 19 14 9 10 10 9 9 10 10 8 8 8 7 7 7 8 8 9 4 0 1 7 11 7 5 4 4 5 5 4 4 1 3 1 3 1 1 2 2 3 3 5 4 3 0 1 5 4 4 4 5
Wind_Direction
177 189 192 189 202 199 189 200 186 213 182 212 204 221 240 256 348 143 103 66 30 18 346 300 82 131 136 88 41 318 60 97 110 125 126 121 103 94 89 74 61 59 58 57 61 66 73 73 77 78 76 74 70 67 65 63 61 57 52 47 43 40 36 32 27 24 22 20 17 15 13 11 9 7 4 3 0 357 355 354 352 350 349 347 345
183 187 182 211 207 185 178 192 180 204 181 203 221 193 225 71 149 80 54 53 29 317 19 313 75 147 164 123 329 264 106 113 113 127 136 120 101 90 84 75 69 67 63 62 67 72 71 72 78 80 80 77 71 67 65 62 58 54 49 45 40 35 32 29 25 23 20 19 17 14 12 10 8 6 3 0 358 356 354 354 351 348 347 344 341
180 184 193 194 206 185 195 204 188 207 197 207 232 159 177 137 133 136 107 47 268 239 101 87 157 145 202 129 231 66 115 110 102 125 130 130 107 90 76 71 67 65 70 67 70 70 71 72 73 77 80 77 71 67 65 61 55 49 44 40 36 33 30 28 24 21 19 17 15 13 11 9 7 4 2 360 357 355 355 353 349 348 347 344 342
180 179 186 182 189 196 209 198 205 212 194 171 177 186 139 161 164 197 176 162 244 314 328 24 144 197 200 198 255 99 109 111 90 63 83 107 120 104 94 77 68 69 69 67 73 71 70 73 73 72 72 70 68 66 62 56 51 45 39 36 33 31 29 26 23 20 17 15 14 13 10 7 5 3 1 359 357 354 355 351 349 349 345 342 343
190 175 177 179 182 196 214 219 215 199 178 193 149 137 41 351 327 223 203 212 310 304 226 107 136 339 18 321 87 111 120 103 95 79 88 101 116 121 105 94 84 73 75 58 68 75 73 74 73 73 72 68 64 63 59 54 47 41 36 33 30 29 27 24 22 19 17 15 13 11 8 6 5 3 360 358 357 354 354 352 350 347 345 346 343
183 177 172 177 190 196 203 225 222 179 187 166 160 168 218 209 255 116 214 235 243 219 166 145 22 360 43 33 91 130 125 97 82 92 99 102 116 113 117 111 95 80 78 71 65 71 76 76 73 68 67 67 64 59 55 50 45 38 34 30 28 27 25 22 20 18 16 15 13 11 8 6 5 2 359 359 356 356 354 352 350 347 346 345 343
186 167 177 178 191 206 200 213 196 177 167 191 169 196 190 219 184 178 191 127 177 253 118 103 114 164 67 81 114 122 112 106 90 90 98 106 91 90 99 111 121 103 88 91 73 73 73 75 75 71 65 61 57 55 51 46 40 35 30 28 26 25 23 21 19 17 15 15 12 10 8 5 3 1 1 359 356 355 354 352 350 348 348 347 343
186 183 179 178 182 197 205 200 185 174 182 168 150 202 207 207 199 156 143 62 82 69 54 85 66 80 85 90 116 124 117 107 100 96 109 91 87 89 86 99 105 111 111 101 97 88 87 83 78 72 66 62 57 50 45 41 36 31 27 24 23 22 22 20 18 16 15 13 11 9 7 5 3 2 1 358 357 356 354 352 350 349 347 345 343
188 190 184 193 189 199 205 197 180 176 187 170 177 197 160 164 188 179 145 148 124 135 66 77 79 326 120 92 110 127 122 120 117 114 93 94 97 87 87 81 103 111 106 110 111 90 75 87 91 86 73 60 55 52 44 37 32 27 24 20 19 18 20 20 18 16 14 11 9 9 7 5 4 2 1 358 358 356 354 353 351 349 346 345 344
186 191 191 196 192 197 205 194 186 180 185 168 199 189 174 153 171 201 148 119 135 129 142 67 55 6 360 73 133 122 123 123 124 110 103 103 96 94 109 110 105 98 92 98 110 109 87 68 66 55 67 63 57 51 46 37 30 25 19 17 16 16 17 18 19 15 13 10 9 9 7 5 4 2 1 359 357 356 354 352 350 348 346 344 344
197 188 191 196 201 205 190 190 185 183 181 182 166 160 161 148 150 123 75 145 154 171 167 170 64 61 45 140 140 135 124 119 116 107 110 120 117 129 100 95 112 101 88 94 104 109 101 81 66 59 52 60 58 54 49 39 28 23 16 14 12 15 16 17 19 15 11 9 10 9 7 6 5 3 1 359 358 356 353 351 349 347 347 345 344
202 197 194 192 196 204 201 180 186 180 183 186 189 176 169 156 164 143 136 94 111 151 136 125 89 51 52 101 150 134 120 124 106 114 125 121 120 103 101 99 90 105 106 104 99 97 85 79 89 92 80 69 66 63 57 45 30 22 16 12 9 13 15 15 17 13 11 10 10 8 7 7 6 4 1 0 357 355 352 351 350 348 347 346 344
198 194 198 197 199 201 203 192 183 188 186 195 197 194 188 174 169 148 153 150 185 183 160 113 101 31 52 45 52 61 107 123 119 123 121 127 116 103 96 78 80 121 137 119 108 104 104 96 86 80 89 82 64 60 60 51 36 21 19 13 8 11 13 14 15 13 11 9 9 9 8 8 6 3 1 359 357 354 352 351 349 348 347 347 345
194 194 196 194 199 202 202 199 188 192 193 195 197 186 179 163 146 138 157 147 187 192 199 111 42 145 133 80 12 9 15 93 123 131 130 110 102 98 85 91 90 125 126 108 116 112 118 121 100 83 65 80 78 70 58 54 39 24 21 15 10 10 13 13 13 12 11 8 9 10 10 8 5 2 0 358 357 354 353 351 349 348 347 346 344
193 194 194 198 200 198 202 199 193 188 193 201 181 182 176 171 167 161 173 171 155 201 182 154 169 147 124 100 165 136 322 56 349 161 123 104 95 98 105 95 109 131 135 110 112 106 103 105 81 71 74 84 85 76 71 63 47 25 19 16 11 11 13 13 13 12 11 8 9 11 9 7 4 1 358 358 356 354 353 351 350 348 347 344 342
192 193 196 197 198 199 199 199 198 192 191 194 185 185 183 178 174 172 152 167 179 218 204 177 144 133 153 186 181 130 166 231 181 238 66 112 103 129 124 122 106 91 92 111 130 103 76 74 71 88 94 93 87 76 72 64 40 21 5 8 14 12 13 12 12 12 11 10 11 10 9 5 3 1 358 358 356 355 353 352 350 348 344 343 341
193 194 195 197 198 199 198 200 199 197 193 194 189 190 188 183 178 168 174 174 190 182 222 195 192 184 142 120 85 154 210 195 126 215 147 109 151 158 154 126 109 106 102 94 100 101 100 68 83 82 92 90 85 80 73 61 40 17 2 8 16 13 14 12 13 11 10 12 11 9 7 5 3 0 359 359 356 355 353 351 349 346 344 343 342
195 196 196 196 198 200 199 199 201 198 194 196 192 188 189 183 186 175 185 188 172 173 192 234 207 204 199 167 157 171 177 190 135 207 248 287 214 267 194 147 131 104 84 112 114 100 101 96 88 95 94 92 86 76 75 62 46 16 10 10 17 14 14 13 13 10 10 12 11 9 7 5 2 0 359 358 357 355 352 349 348 346 343 342 337
199 197 198 198 198 199 201 202 200 196 193 192 195 193 189 188 182 179 185 176 161 176 182 195 141 277 177 155 147 169 163 147 194 103 166 278 292 269 251 186 139 118 116 137 150 119 126 121 103 107 95 95 88 86 80 64 44 23 19 16 17 14 13 15 15 11 10 10 9 8 7 4 1 359 357 357 357 353 350 349 348 345 341 340 339
204 204 201 200 201 200 201 203 200 195 186 197 196 194 188 189 183 184 181 177 177 177 187 185 179 214 183 153 148 108 171 219 188 168 156 163 223 264 277 301 360 148 150 158 171 154 153 150 113 109 104 93 91 79 73 66 50 24 14 14 16 13 12 13 15 13 11 10 8 6 5 2 359 357 357 356 354 351 350 349 347 343 337 338 339
210 206 206 204 202 204 202 204 201 198 190 194 193 185 183 180 185 184 183 183 185 187 175 187 184 189 143 202 134 182 195 33 114 104 136 140 199 188 204 329 354 290 173 182 194 180 165 170 125 123 110 99 86 79 67 67 52 37 18 16 14 12 12 12 14 13 12 11 8 4 2 360 357 356 356 354 353 351 350 347 345 340 337 339 340
210 207 206 205 203 205 205 206 204 199 194 194 189 188 188 185 186 187 186 186 190 182 187 185 191 183 181 164 170 124 127 267 219 118 58 113 164 194 189 169 177 256 264 220 202 201 170 136 108 112 103 97 86 77 70 68 71 54 24 18 13 13 12 11 13 12 12 9 5 2 360 358 356 355 354 353 352 350 349 347 344 337 338 342 341
205 208 205 203 204 203 206 205 201 197 194 192 192 188 187 186 187 187 188 186 187 184 182 186 188 183 178 172 184 182 183 181 192 189 151 148 88 161 159 182 176 181 251 204 226 225 172 129 121 113 108 99 105 87 74 70 65 48 29 18 13 12 12 9 11 10 10 6 3 359 357 356 354 354 353 352 351 349 347 345 341 336 336 344 344
206 207 208 204 202 204 203 201 202 194 198 192 186 185 181 180 182 188 190 189 186 186 179 176 183 189 188 185 186 188 196 188 197 174 164 176 155 160 156 156 65 212 281 171 204 197 207 131 128 123 116 118 106 93 71 61 49 39 31 16 12 11 10 7 7 7 8 3 359 356 355 354 354 353 352 350 349 348 346 343 342 339 340 342 343
207 206 208 202 200 201 198 202 201 199 193 186 185 177 175 179 183 188 188 185 184 181 182 187 180 182 195 196 178 181 212 219 167 158 124 125 131 128 199 120 161 237 273 139 197 158 183 97 110 109 118 98 78 57 55 54 52 35 36 13 8 8 8 5 3 5 5 360 357 355 353 353 353 352 351 349 348 348 346 343 343 342 341 346 346
204 208 205 200 200 202 200 202 198 192 189 187 180 179 177 182 183 188 192 190 175 185 186 183 186 194 170 167 176 179 204 184 175 145 147 130 135 145 142 47 89 201 304 274 239 134 72 50 57 98 86 77 66 60 50 51 53 32 34 27 359 0 6 3 2 3 3 359 354 353 353 352 352 350 349 348 349 348 345 344 345 345 340 341 347
208 210 198 201 202 200 201 198 195 190 185 181 180 179 181 181 187 190 188 178 178 174 179 168 173 170 173 168 160 158 170 186 159 157 146 152 147 156 142 134 92 22 273 322 315 179 155 51 31 68 77 79 67 62 56 58 59 33 42 20 356 352 3 4 1 4 3 358 353 352 352 352 351 348 349 350 350 348 345 346 348 347 345 345 344
212 202 204 200 199 199 197 199 191 186 185 184 179 179 180 181 185 181 183 165 171 175 178 175 177 175 165 150 145 164 168 172 149 146 141 144 139 141 139 146 143 179 286 213 348 183 161 118 19 65 73 83 68 75 63 72 38 48 38 11 1 358 5 8 3 4 1 357 353 353 353 352 350 349 350 352 351 348 346 348 348 348 345 346 350
208 201 201 200 198 196 194 194 189 187 186 186 181 178 175 179 179 179 180 173 170 181 170 179 175 165 160 166 162 157 166 159 136 133 130 122 130 139 156 163 165 137 169 192 238 174 198 97 144 125 85 73 80 57 73 52 49 56 26 11 10 8 17 12 4 3 359 357 353 354 353 351 350 351 352 353 351 349 348 348 349 348 347 349 351
198 193 192 193 194 189 191 192 189 185 187 184 181 177 172 178 181 183 179 170 175 170 177 167 166 162 157 156 153 152 163 155 151 141 133 134 130 137 144 148 151 150 161 163 230 206 134 14 71 140 72 56 66 58 74 44 58 52 22 14 21 16 26 14 4 0 358 357 356 356 353 352 352 353 354 355 351 350 348 348 350 348 347 350 351
185 183 184 183 184 184 185 187 183 187 183 182 180 177 172 173 178 175 165 168 167 173 175 166 167 158 164 165 165 154 156 154 143 131 128 126 130 125 126 119 124 139 144 132 140 258 135 135 19 32 140 58 73 77 38 36 51 47 23 31 22 27 34 10 2 358 355 357 358 358 354 355 356 356 356 355 350 350 348 348 350 349 347 350 352
189 185 182 182 179 179 180 178 182 181 181 183 181 178 175 178 173 173 177 173 175 176 174 173 163 167 163 168 174 163 159 150 143 140 131 121 126 128 135 131 129 132 131 128 133 171 33 128 144 98 90 97 51 73 23 27 20 30 34 46 23 29 31 10 354 352 352 355 0 358 355 359 1 0 357 355 350 350 348 349 352 350 350 350 351
181 182 185 184 183 180 176 179 183 185 185 183 182 178 179 177 179 177 169 172 171 170 160 166 166 163 168 169 175 167 162 153 151 139 129 129 120 122 125 128 134 142 137 145 156 169 311 34 102 107 41 79 16 103 76 34 17 356 39 47 32 24 25 6 348 338 346 353 3 358 357 2 4 3 359 355 351 351 349 352 354 352 351 352 352
180 183 186 185 182 181 181 184 189 191 191 186 183 179 176 172 170 166 169 168 168 168 169 171 174 173 164 165 172 168 177 153 149 144 145 137 138 136 145 146 155 160 162 131 173 146 178 277 44 349 40 64 64 12 114 76 13 21 42 15 17 34 28 1 344 332 340 354 4 357 359 5 5 4 1 357 353 351 352 354 355 353 353 352 352
188 182 184 181 181 181 186 189 190 192 193 192 188 183 180 175 172 175 176 175 172 171 176 178 175 164 163 169 174 166 158 144 148 144 142 144 143 148 154 147 153 160 155 126 127 181 173 214 176 162 193 322 154 130 128 116 92 98 69 19 7 352 13 357 339 339 331 353 360 357 359 4 6 3 2 359 355 354 355 356 355 354 354 351 352
185 190 182 182 180 182 185 190 194 193 194 194 191 192 184 178 177 178 176 180 178 177 178 174 170 169 170 165 177 170 160 149 150 147 150 146 151 151 150 153 147 158 151 132 128 143 172 167 237 167 224 160 319 102 150 114 69 61 72 8 355 6 346 349 339 326 330 354 356 358 359 2 3 3 1 360 357 356 358 358 355 354 353 351 353
187 177 187 184 182 181 187 190 192 195 196 192 192 194 191 186 181 175 176 179 182 181 179 174 170 168 168 177 174 170 163 150 153 155 160 161 159 154 159 157 153 150 139 142 142 121 146 177 195 250 197 186 209 135 114 80 11 52 55 6 319 322 329 335 322 317 336 357 350 357 0 1 0 0 359 359 358 359 359 359 356 354 353 350 353
182 187 181 184 185 184 183 191 197 198 195 194 197 198 191 182 178 175 176 179 180 180 177 171 169 169 171 176 175 170 168 164 168 165 165 166 158 162 161 159 153 146 148 147 146 153 165 188 172 222 253 173 296 180 146 96 116 65 3 331 321 343 351 335 335 315 314 343 335 346 351 355 355 356 357 358 358 1 0 359 356 353 353 350 352
182 184 191 182 189 187 194 196 198 196 195 193 193 188 180 179 178 171 167 166 172 180 183 175 173 170 170 173 174 176 175 171 164 170 169 167 169 172 170 162 157 154 161 168 164 174 184 190 211 197 208 246 182 208 219 97 107 130 67 331 13 339 348 328 319 311 267 331 347 357 356 358 354 350 352 356 359 1 360 354 349 351 352 350 352
200 202 197 200 203 197 194 193 197 192 188 186 182 179 176 178 174 170 169 167 168 176 181 182 178 172 169 174 179 181 179 175 171 170 168 169 164 165 167 156 158 159 169 169 174 182 188 194 200 201 195 194 260 84 70 64 43 356 79 74 357 341 341 327 284 284 304 1 353 344 348 347 348 340 346 352 357 359 353 350 339 339 349 350 353
200 199 201 203 191 202 203 198 194 187 188 192 189 179 164 165 165 165 166 167 170 173 172 170 178 178 168 173 182 185 183 177 174 170 174 167 162 164 169 163 163 166 166 172 180 178 188 190 208 187 187 205 207 166 222 155 176 183 224 122 68 297 328 315 305 339 26 356 340 340 341 344 333 335 336 347 350 351 342 342 334 329 350 352 355
217 197 196 194 193 203 198 192 178 174 186 182 180 178 179 173 172 171 170 171 170 169 167 165 168 180 181 175 182 183 176 170 167 168 166 169 174 170 165 167 166 167 172 173 181 186 181 193 206 188 197 217 208 191 174 206 164 144 78 68 56 297 299 285 261 221 21 8 349 343 333 332 336 324 351 348 340 342 330 328 320 341 353 355 356
148 146 145 162 186 181 183 184 180 181 184 188 185 184 183 178 171 172 171 165 162 168 174 174 174 172 178 177 170 172 169 165 166 166 167 167 165 150 156 166 169 170 167 175 190 182 188 200 192 190 204 209 210 179 190 180 168 145 145 140 256 253 272 335 332 311 59 31 349 343 323 329 352 340 336 335 331 331 330 320 329 349 355 357 358
134 127 156 179 180 179 175 182 189 193 195 190 185 185 183 178 172 163 158 162 172 175 176 177 175 172 171 168 170 168 172 169 160 160 162 163 160 152 163 164 169 178 185 171 171 183 193 188 192 206 187 204 194 181 185 156 159 124 150 167 208 207 243 254 265 271 282 53 1 344 309 302 14 334 331 326 326 319 314 327 334 353 358 359 0
131 158 186 169 185 178 176 185 195 197 202 181 183 186 184 179 175 168 173 173 172 179 180 179 174 174 169 164 164 171 167 161 156 157 153 154 154 150 149 161 171 182 189 192 195 194 180 183 189 199 200 178 181 203 180 166 148 147 177 211 206 214 224 237 243 254 302 90 63 348 286 287 19 352 324 317 322 318 323 327 339 356 359 2 2
173 176 174 187 180 183 189 191 193 184 185 175 176 178 180 182 179 173 167 171 176 180 183 181 178 177 175 170 167 170 171 168 164 160 158 155 154 152 156 165 175 188 194 201 201 190 185 189 182 197 199 161 188 174 175 153 138 169 188 213 216 203 206 231 263 259 281 106 90 350 319 294 342 359 320 311 317 316 313 325 350 354 0 3 4
182 189 187 189 196 192 194 185 176 182 186 172 172 172 171 169 170 158 155 164 177 183 186 185 184 182 179 177 176 174 170 173 174 168 163 164 160 163 165 177 185 191 196 200 198 189 186 184 193 191 181 179 178 171 167 160 157 183 204 208 190 217 236 41 11 267 300 154 90 152 228 269 323 340 293 303 322 312 301 321 349 356 359 5 7
166 158 181 176 187 191 184 172 170 186 180 174 171 170 170 171 167 159 167 174 183 187 188 189 186 186 184 181 177 175 175 176 174 171 167 159 162 166 176 181 187 199 215 209 203 195 187 181 188 190 187 186 176 172 173 171 179 186 152 113 133 117 92 322 268 272 222 283 152 132 258 289 279 328 303 299 306 300 310 338 341 352 358 4 10
174 186 193 188 175 172 175 182 183 186 185 185 177 174 173 171 163 167 173 181 190 190 195 188 188 186 189 186 180 172 172 178 175 174 170 162 165 172 178 183 190 200 216 207 210 212 209 206 202 201 202 199 198 196 198 203 192 154 142 173 216 149 156 232 290 148 275 308 296 120 172 270 293 331 310 306 303 296 317 330 330 339 354 2 11
181 178 144 124 115 153 173 189 191 180 194 198 186 182 177 176 173 173 179 182 189 190 186 177 170 180 187 185 177 173 178 179 177 177 173 166 170 178 178 180 190 207 215 192 194 213 213 212 210 207 209 215 217 218 222 221 219 163 161 204 201 150 184 185 215 261 276 257 250 138 84 238 291 321 311 301 312 279 285 308 344 336 348 349 4
109 112 122 130 125 136 156 161 161 172 170 199 199 192 184 181 175 173 174 178 177 178 161 157 148 164 178 184 188 184 187 179 180 179 176 173 178 181 183 176 195 211 213 179 187 188 193 199 211 210 220 225 228 246 283 229 224 187 165 179 178 170 194 199 182 262 349 308 236 178 78 281 36 322 6 337 354 295 185 340 340 323 335 339 350